Year,Month,Day,Hour,Minute,Value (Times are PST for temperature in C)
2014,02,14,00,00,7.10
2014,02,14,00,01,7.10
2014,02,14,00,02,7.10
2014,02,14,00,03,7.10
2014,02,14,00,04,7.10
2014,02,14,00,05,7.10
2014,02,14,00,06,7.10
2014,02,14,00,07,7.10
2014,02,14,00,08,7.10
2014,02,14,00,09,7.00
2014,02,14,00,10,7.00
2014,02,14,00,11,7.00
2014,02,14,00,12,7.00
2014,02,14,00,13,7.00
2014,02,14,00,14,7.00
2014,02,14,00,15,7.00
2014,02,14,00,16,7.00
2014,02,14,00,17,7.00
2014,02,14,00,18,7.00
2014,02,14,00,19,7.00
2014,02,14,00,20,7.00
2014,02,14,00,21,7.00
2014,02,14,00,22,7.00
2014,02,14,00,23,7.00
2014,02,14,00,24,7.00
2014,02,14,00,25,7.00
2014,02,14,00,26,7.00
2014,02,14,00,27,7.10
2014,02,14,00,28,7.10
2014,02,14,00,29,7.10
2014,02,14,00,30,7.10
2014,02,14,00,31,7.10
2014,02,14,00,32,7.10
2014,02,14,00,33,7.10
2014,02,14,00,34,7.10
2014,02,14,00,35,7.20
2014,02,14,00,36,7.20
2014,02,14,00,37,7.20
2014,02,14,00,38,7.20
2014,02,14,00,39,7.20
2014,02,14,00,40,7.20
2014,02,14,00,41,7.20
2014,02,14,00,42,7.20
2014,02,14,00,43,7.20
2014,02,14,00,44,7.20
2014,02,14,00,45,7.20
2014,02,14,00,46,7.20
2014,02,14,00,47,7.20
2014,02,14,00,48,7.20
2014,02,14,00,49,7.20
2014,02,14,00,50,7.20
2014,02,14,00,51,7.30
2014,02,14,00,52,7.30
2014,02,14,00,53,7.30
2014,02,14,00,54,7.30
2014,02,14,00,55,7.30
2014,02,14,00,56,7.30
2014,02,14,00,57,7.30
2014,02,14,00,58,7.30
2014,02,14,00,59,7.30
2014,02,14,01,00,7.30
2014,02,14,01,01,7.30
2014,02,14,01,02,7.30
2014,02,14,01,03,7.30
2014,02,14,01,04,7.40
2014,02,14,01,05,7.40
2014,02,14,01,06,7.40
2014,02,14,01,07,7.40
2014,02,14,01,08,7.40
2014,02,14,01,09,7.40
2014,02,14,01,10,7.40
2014,02,14,01,11,7.40
2014,02,14,01,12,7.40
2014,02,14,01,13,7.40
2014,02,14,01,14,7.40
2014,02,14,01,15,7.40
2014,02,14,01,16,7.30
2014,02,14,01,17,7.30
2014,02,14,01,18,7.30
2014,02,14,01,19,7.20
2014,02,14,01,20,7.20
2014,02,14,01,21,7.10
2014,02,14,01,22,7.10
2014,02,14,01,23,7.00
2014,02,14,01,24,7.00
2014,02,14,01,25,6.90
2014,02,14,01,26,6.80
2014,02,14,01,27,6.80
2014,02,14,01,28,6.70
2014,02,14,01,29,6.70
2014,02,14,01,30,6.60
2014,02,14,01,31,6.60
2014,02,14,01,32,6.50
2014,02,14,01,33,6.40
2014,02,14,01,34,6.40
2014,02,14,01,35,6.30
2014,02,14,01,36,6.30
2014,02,14,01,37,6.20
2014,02,14,01,38,6.20
2014,02,14,01,39,6.10
2014,02,14,01,40,6.10
2014,02,14,01,41,6.00
2014,02,14,01,42,5.90
2014,02,14,01,43,5.90
2014,02,14,01,44,5.90
2014,02,14,01,45,5.80
2014,02,14,01,46,5.80
2014,02,14,01,47,5.70
2014,02,14,01,48,5.70
2014,02,14,01,49,5.60
2014,02,14,01,50,5.60
2014,02,14,01,51,5.60
2014,02,14,01,52,5.50
2014,02,14,01,53,5.50
2014,02,14,01,54,5.40
2014,02,14,01,55,5.40
2014,02,14,01,56,5.40
2014,02,14,01,57,5.40
2014,02,14,01,58,5.40
2014,02,14,01,59,5.50
2014,02,14,02,00,5.50
2014,02,14,02,01,5.50
2014,02,14,02,02,5.50
2014,02,14,02,03,5.50
2014,02,14,02,04,5.50
2014,02,14,02,05,5.50
2014,02,14,02,06,5.50
2014,02,14,02,07,5.50
2014,02,14,02,08,5.50
2014,02,14,02,09,5.50
2014,02,14,02,10,5.50
2014,02,14,02,11,5.50
2014,02,14,02,12,5.50
2014,02,14,02,13,5.50
2014,02,14,02,14,5.50
2014,02,14,02,15,5.40
2014,02,14,02,16,5.40
2014,02,14,02,17,5.40
2014,02,14,02,18,5.40
2014,02,14,02,19,5.40
2014,02,14,02,20,5.40
2014,02,14,02,21,5.40
2014,02,14,02,22,5.40
2014,02,14,02,23,5.40
2014,02,14,02,24,5.40
2014,02,14,02,25,5.40
2014,02,14,02,26,5.40
2014,02,14,02,27,5.40
2014,02,14,02,28,5.40
2014,02,14,02,29,5.40
2014,02,14,02,30,5.40
2014,02,14,02,31,5.40
2014,02,14,02,32,5.40
2014,02,14,02,33,5.40
2014,02,14,02,34,5.40
2014,02,14,02,35,5.40
2014,02,14,02,36,5.40
2014,02,14,02,37,5.40
2014,02,14,02,38,5.40
2014,02,14,02,39,5.40
2014,02,14,02,40,5.40
2014,02,14,02,41,5.40
2014,02,14,02,42,5.40
2014,02,14,02,43,5.40
2014,02,14,02,44,5.30
2014,02,14,02,45,5.30
2014,02,14,02,46,5.30
2014,02,14,02,47,5.30
2014,02,14,02,48,5.20
2014,02,14,02,49,5.20
2014,02,14,02,50,5.10
2014,02,14,02,51,5.10
2014,02,14,02,52,5.10
2014,02,14,02,53,5.10
2014,02,14,02,54,5.10
2014,02,14,02,55,5.00
2014,02,14,02,56,5.00
2014,02,14,02,57,5.00
2014,02,14,02,58,4.90
2014,02,14,02,59,4.90
2014,02,14,03,00,4.90
2014,02,14,03,01,4.80
2014,02,14,03,02,4.80
2014,02,14,03,03,4.80
2014,02,14,03,04,4.80
2014,02,14,03,05,4.80
2014,02,14,03,06,4.70
2014,02,14,03,07,4.70
2014,02,14,03,08,4.70
2014,02,14,03,09,4.70
2014,02,14,03,10,4.70
2014,02,14,03,11,4.60
2014,02,14,03,12,4.60
2014,02,14,03,13,4.60
2014,02,14,03,14,4.60
2014,02,14,03,15,4.60
2014,02,14,03,16,4.60
2014,02,14,03,17,4.60
2014,02,14,03,18,4.60
2014,02,14,03,19,4.60
2014,02,14,03,20,4.60
2014,02,14,03,21,4.60
2014,02,14,03,22,4.60
2014,02,14,03,23,4.60
2014,02,14,03,24,4.60
2014,02,14,03,25,4.60
2014,02,14,03,26,4.70
2014,02,14,03,27,4.70
2014,02,14,03,28,4.70
2014,02,14,03,29,4.70
2014,02,14,03,30,4.70
2014,02,14,03,31,4.70
2014,02,14,03,32,4.80
2014,02,14,03,33,4.80
2014,02,14,11,06,9.80
2014,02,14,11,07,9.80
2014,02,14,11,08,9.80
2014,02,14,11,09,9.80
2014,02,14,11,10,9.80
2014,02,14,11,11,9.80
2014,02,14,11,12,9.80
2014,02,14,11,13,9.80
2014,02,14,11,14,9.80
2014,02,14,11,15,9.80
2014,02,14,11,16,9.70
2014,02,14,11,17,9.70
2014,02,14,11,18,9.70
2014,02,14,11,19,9.70
2014,02,14,11,20,9.60
2014,02,14,11,21,9.50
2014,02,14,11,22,9.50
2014,02,14,11,23,9.50
2014,02,14,11,24,9.50
2014,02,14,11,25,9.50
2014,02,14,11,26,9.50
2014,02,14,11,27,9.40
2014,02,14,11,28,9.40
2014,02,14,11,29,9.40
2014,02,14,11,30,9.40
2014,02,14,11,31,9.30
2014,02,14,11,32,9.30
2014,02,14,11,33,9.30
2014,02,14,11,34,9.30
2014,02,14,11,35,9.20
2014,02,14,11,36,9.20
2014,02,14,11,37,9.20
2014,02,14,11,38,9.10
2014,02,14,11,39,9.10
2014,02,14,11,40,9.10
2014,02,14,11,41,9.10
2014,02,14,11,42,9.00
2014,02,14,11,43,9.00
2014,02,14,11,44,8.90
2014,02,14,11,45,8.90
2014,02,14,11,46,8.90
2014,02,14,11,47,8.90
2014,02,14,11,48,8.80
2014,02,14,11,49,8.80
2014,02,14,11,50,8.80
2014,02,14,11,51,8.80
2014,02,14,11,52,8.80
2014,02,14,11,53,8.80
2014,02,14,11,54,8.80
2014,02,14,11,55,8.80
2014,02,14,11,56,8.80
2014,02,14,11,57,8.80
2014,02,14,11,58,8.80
2014,02,14,11,59,8.80
2014,02,14,12,00,8.80
2014,02,14,12,01,8.80
2014,02,14,12,02,8.80
2014,02,14,12,03,8.80
2014,02,14,12,04,8.80
2014,02,14,12,05,8.80
2014,02,14,12,06,8.80
2014,02,14,12,07,8.90
2014,02,14,12,08,8.90
2014,02,14,12,09,9.00
2014,02,14,12,10,9.00
2014,02,14,12,11,9.10
2014,02,14,12,12,9.20
2014,02,14,12,13,9.20
2014,02,14,12,14,9.30
2014,02,14,12,15,9.40
2014,02,14,12,16,9.40
2014,02,14,12,17,9.50
2014,02,14,12,18,9.60
2014,02,14,12,19,9.70
2014,02,14,12,20,9.80
2014,02,14,12,21,9.80
2014,02,14,12,22,9.90
2014,02,14,12,23,10.00
2014,02,14,12,24,10.10
2014,02,14,12,25,10.20
2014,02,14,12,26,10.30
2014,02,14,12,27,10.40
2014,02,14,12,28,10.50
2014,02,14,12,29,10.60
2014,02,14,12,30,10.70
2014,02,14,12,31,10.70
2014,02,14,12,32,10.70
2014,02,14,12,33,10.70
2014,02,14,12,34,10.60
2014,02,14,12,35,10.60
2014,02,14,12,36,10.60
2014,02,14,12,37,10.60
2014,02,14,12,38,10.60
2014,02,14,12,39,10.60
2014,02,14,12,40,10.60
2014,02,14,12,41,10.60
2014,02,14,12,42,10.50
2014,02,14,12,43,10.50
2014,02,14,12,44,10.40
2014,02,14,12,45,10.40
2014,02,14,12,46,10.30
2014,02,14,12,47,10.30
2014,02,14,12,48,10.30
2014,02,14,12,49,10.30
2014,02,14,12,50,10.30
2014,02,14,12,51,10.30
2014,02,14,12,52,10.30
2014,02,14,12,53,10.40
2014,02,14,12,54,10.40
2014,02,14,12,55,10.50
2014,02,14,12,56,10.60
2014,02,14,12,57,10.70
2014,02,14,12,58,10.80
2014,02,14,12,59,10.80
2014,02,14,13,00,10.80
2014,02,14,13,01,10.90
2014,02,14,13,02,10.80
2014,02,14,13,03,10.80
2014,02,14,13,04,10.80
2014,02,14,13,05,10.80
2014,02,14,13,06,10.70
2014,02,14,13,07,10.60
2014,02,14,13,08,10.50
2014,02,14,13,09,10.50
2014,02,14,13,10,10.50
2014,02,14,13,11,10.40
2014,02,14,13,12,10.40
2014,02,14,13,13,10.40
2014,02,14,13,14,10.40
2014,02,14,13,15,10.40
2014,02,14,13,16,10.50
2014,02,14,13,17,10.40
2014,02,14,13,18,10.40
2014,02,14,13,19,10.40
2014,02,14,13,20,10.30
2014,02,14,13,21,10.30
2014,02,14,13,22,10.30
2014,02,14,13,23,10.30
2014,02,14,13,24,10.30
2014,02,14,13,25,10.30
2014,02,14,13,26,10.30
2014,02,14,13,27,10.30
2014,02,14,13,28,10.30
2014,02,14,13,29,10.30
2014,02,14,13,30,10.40
2014,02,14,13,31,10.50
2014,02,14,13,32,10.60
2014,02,14,13,33,10.60
2014,02,14,13,34,10.70
2014,02,14,13,35,10.80
2014,02,14,13,36,10.80
2014,02,14,13,37,10.80
2014,02,14,13,38,10.90
2014,02,14,13,39,11.00
2014,02,14,13,40,11.10
2014,02,14,13,41,11.20
2014,02,14,13,42,11.30
2014,02,14,13,43,11.40
2014,02,14,13,44,11.50
2014,02,14,13,45,11.50
2014,02,14,13,46,11.60
2014,02,14,13,47,11.70
2014,02,14,13,48,11.80
2014,02,14,13,49,11.90
2014,02,14,13,50,11.90
2014,02,14,13,51,12.00
2014,02,14,13,52,11.90
2014,02,14,13,53,11.80
2014,02,14,13,54,11.80
2014,02,14,13,55,11.80
2014,02,14,13,56,11.80
2014,02,14,13,57,11.80
2014,02,14,13,58,11.80
2014,02,14,13,59,11.80
2014,02,14,14,00,11.80
2014,02,14,14,01,11.70
2014,02,14,14,02,11.70
2014,02,14,14,03,11.70
2014,02,14,14,04,11.70
2014,02,14,14,05,11.70
2014,02,14,14,06,11.80
2014,02,14,14,07,11.80
2014,02,14,14,08,11.90
2014,02,14,14,09,12.00
2014,02,14,14,10,12.20
2014,02,14,14,11,12.30
2014,02,14,14,12,12.40
2014,02,14,14,13,12.40
2014,02,14,14,14,12.50
2014,02,14,14,15,12.50
2014,02,14,14,16,12.40
2014,02,14,14,17,12.40
2014,02,14,14,18,12.30
2014,02,14,14,19,12.20
2014,02,14,14,20,12.10
2014,02,14,14,21,12.00
2014,02,14,14,22,11.80
2014,02,14,14,23,11.80
2014,02,14,14,24,11.70
2014,02,14,14,25,11.60
2014,02,14,14,26,11.60
2014,02,14,14,27,11.60
2014,02,14,14,28,11.60
2014,02,14,14,29,11.50
2014,02,14,14,30,11.50
2014,02,14,14,31,11.60
2014,02,14,14,32,11.60
2014,02,14,14,33,11.60
2014,02,14,14,34,11.60
2014,02,14,14,35,11.50
2014,02,14,14,36,11.50
2014,02,14,14,37,11.40
2014,02,14,14,38,11.30
2014,02,14,14,39,11.30
2014,02,14,14,40,11.20
2014,02,14,14,41,11.10
2014,02,14,14,42,11.10
2014,02,14,14,43,11.00
2014,02,14,14,44,11.00
2014,02,14,14,45,10.90
2014,02,14,14,46,10.90
2014,02,14,14,47,10.90
2014,02,14,14,48,10.80
2014,02,14,14,49,10.80
2014,02,14,14,50,10.80
2014,02,14,14,51,10.80
2014,02,14,14,52,10.80
2014,02,14,14,53,10.80
2014,02,14,14,54,10.80
2014,02,14,14,55,10.80
2014,02,14,14,56,10.80
2014,02,14,14,57,10.80
2014,02,14,14,58,10.80
2014,02,14,14,59,10.90
2014,02,14,15,00,11.00
2014,02,14,15,01,11.00
2014,02,14,15,02,11.00
2014,02,14,15,03,11.00
2014,02,14,15,04,11.10
2014,02,14,15,05,11.10
2014,02,14,15,06,11.10
2014,02,14,15,07,11.20
2014,02,14,15,08,11.30
2014,02,14,15,09,11.40
2014,02,14,15,10,11.50
2014,02,14,15,11,11.60
2014,02,14,15,12,11.70
2014,02,14,15,13,11.70
2014,02,14,15,14,11.70
2014,02,14,15,15,11.70
2014,02,14,15,16,11.80
2014,02,14,15,17,11.80
2014,02,14,15,18,11.80
2014,02,14,15,19,11.70
2014,02,14,15,20,11.70
2014,02,14,15,21,11.70
2014,02,14,15,22,11.70
2014,02,14,15,23,11.80
2014,02,14,15,24,11.80
2014,02,14,15,25,11.90
2014,02,14,15,26,11.90
2014,02,14,15,27,11.90
2014,02,14,15,28,11.90
2014,02,14,15,29,11.90
2014,02,14,15,30,11.90
2014,02,14,15,31,12.00
2014,02,14,15,32,11.90
2014,02,14,15,33,11.90
2014,02,14,15,34,11.90
2014,02,14,15,35,11.90
2014,02,14,15,36,11.90
2014,02,14,15,37,11.80
2014,02,14,15,38,11.90
2014,02,14,15,39,11.90
2014,02,14,15,40,11.90
2014,02,14,15,41,12.00
2014,02,14,15,42,12.00
2014,02,14,15,43,12.00
2014,02,14,15,44,12.00
2014,02,14,15,45,11.90
2014,02,14,15,46,11.90
2014,02,14,15,47,12.00
2014,02,14,15,48,12.00
2014,02,14,15,49,11.90
2014,02,14,15,50,11.90
2014,02,14,15,51,11.90
2014,02,14,15,52,12.00
2014,02,14,15,53,12.00
2014,02,14,15,54,12.00
2014,02,14,15,55,12.00
2014,02,14,15,56,12.00
2014,02,14,15,57,12.00
2014,02,14,15,58,12.00
2014,02,14,15,59,12.00
2014,02,14,16,00,12.00
2014,02,14,16,01,12.00
2014,02,14,16,02,12.10
2014,02,14,16,03,12.10
2014,02,14,16,04,12.10
2014,02,14,16,05,12.00
2014,02,14,16,06,12.00
2014,02,14,16,07,11.90
2014,02,14,16,08,11.80
2014,02,14,16,09,11.80
2014,02,14,16,10,11.70
2014,02,14,16,11,11.70
2014,02,14,16,12,11.60
2014,02,14,16,13,11.60
2014,02,14,16,14,11.50
2014,02,14,16,15,11.50
2014,02,14,16,16,11.50
2014,02,14,16,17,11.40
2014,02,14,16,18,11.40
2014,02,14,16,19,11.40
2014,02,14,16,20,11.40
2014,02,14,16,21,11.40
2014,02,14,16,22,11.40
2014,02,14,16,23,11.40
2014,02,14,16,24,11.40
2014,02,14,16,25,11.30
2014,02,14,16,26,11.30
2014,02,14,16,27,11.30
2014,02,14,16,28,11.30
2014,02,14,16,29,11.20
2014,02,14,16,30,11.20
2014,02,14,16,31,11.10
2014,02,14,16,32,11.10
2014,02,14,16,33,11.00
2014,02,14,16,34,10.90
2014,02,14,16,35,10.90
2014,02,14,16,36,10.90
2014,02,14,16,37,10.90
2014,02,14,16,38,10.80
2014,02,14,16,39,10.80
2014,02,14,16,40,10.80
2014,02,14,16,41,10.80
2014,02,14,16,42,10.80
2014,02,14,16,43,10.80
2014,02,14,16,44,10.70
2014,02,14,16,45,10.70
2014,02,14,16,46,10.70
2014,02,14,16,47,10.70
2014,02,14,16,48,10.60
2014,02,14,16,49,10.60
2014,02,14,16,50,10.60
2014,02,14,16,51,10.60
2014,02,14,16,52,10.50
2014,02,14,16,53,10.50
2014,02,14,16,54,10.50
2014,02,14,16,55,10.50
2014,02,14,16,56,10.40
2014,02,14,16,57,10.40
2014,02,14,16,58,10.40
2014,02,14,16,59,10.40
2014,02,14,17,00,10.40
2014,02,14,17,01,10.40
2014,02,14,17,02,10.40
2014,02,14,17,03,10.40
2014,02,14,17,04,10.30
2014,02,14,17,05,10.30
2014,02,14,17,06,10.20
2014,02,14,17,07,10.10
2014,02,14,17,08,10.00
2014,02,14,17,09,10.00
2014,02,14,17,10,9.90
2014,02,14,17,11,9.80
2014,02,14,17,12,9.70
2014,02,14,17,13,9.60
2014,02,14,17,14,9.50
2014,02,14,17,15,9.40
2014,02,14,17,16,9.30
2014,02,14,17,17,9.20
2014,02,14,17,18,9.10
2014,02,14,17,19,9.00
2014,02,14,17,20,8.90
2014,02,14,17,21,8.80
2014,02,14,17,22,8.70
2014,02,14,17,23,8.60
2014,02,14,17,24,8.50
2014,02,14,17,25,8.40
2014,02,14,17,26,8.30
2014,02,14,17,27,8.20
2014,02,14,17,28,8.10
2014,02,14,17,29,8.00
2014,02,14,17,30,7.90
2014,02,14,17,31,7.80
2014,02,14,17,32,7.80
2014,02,14,17,33,7.70
2014,02,14,17,34,7.60
2014,02,14,17,35,7.60
2014,02,14,17,36,7.50
2014,02,14,17,37,7.40
2014,02,14,17,38,7.40
2014,02,14,17,39,7.30
2014,02,14,17,40,7.30
2014,02,14,17,41,7.30
2014,02,14,17,42,7.30
2014,02,14,17,43,7.20
2014,02,14,17,44,7.20
2014,02,14,17,45,7.20
2014,02,14,17,46,7.20
2014,02,14,17,47,7.20
2014,02,14,17,48,7.10
2014,02,14,17,49,7.10
2014,02,14,17,50,7.10
2014,02,14,17,51,7.00
2014,02,14,17,52,7.00
2014,02,14,17,53,7.00
2014,02,14,17,54,7.00
2014,02,14,17,55,7.00
2014,02,14,17,56,6.90
2014,02,14,17,57,6.90
2014,02,14,17,58,6.90
2014,02,14,17,59,6.90
2014,02,14,18,00,6.90
2014,02,14,18,01,6.90
2014,02,14,18,02,6.90
2014,02,14,18,03,6.90
2014,02,14,18,04,6.90
2014,02,14,18,05,6.90
2014,02,14,18,06,6.90
2014,02,14,18,07,6.90
2014,02,14,18,08,6.90
2014,02,14,18,09,6.90
2014,02,14,18,10,6.80
2014,02,14,18,11,6.80
2014,02,14,18,12,6.80
2014,02,14,18,13,6.80
2014,02,14,18,14,6.70
2014,02,14,18,15,6.70
2014,02,14,18,16,6.70
2014,02,14,18,17,6.60
2014,02,14,18,18,6.60
2014,02,14,18,19,6.60
2014,02,14,18,20,6.60
2014,02,14,18,21,6.60
2014,02,14,18,22,6.50
2014,02,14,18,23,6.50
2014,02,14,18,24,6.40
2014,02,14,18,25,6.40
2014,02,14,18,26,6.40
2014,02,14,18,27,6.40
2014,02,14,18,28,6.40
2014,02,14,18,29,6.30
2014,02,14,18,30,6.30
2014,02,14,18,31,6.30
2014,02,14,18,32,6.20
2014,02,14,18,33,6.20
2014,02,14,18,34,6.20
2014,02,14,18,35,6.10
2014,02,14,18,36,6.10
2014,02,14,18,37,6.10
2014,02,14,18,38,6.10
2014,02,14,18,39,6.00
2014,02,14,18,40,6.00
2014,02,14,18,41,6.00
2014,02,14,18,42,6.00
2014,02,14,18,43,6.00
2014,02,14,18,44,6.00
2014,02,14,18,45,6.10
2014,02,14,18,46,6.20
2014,02,14,18,47,6.20
2014,02,14,18,48,6.20
2014,02,14,18,49,6.10
2014,02,14,18,50,6.10
2014,02,14,18,51,6.10
2014,02,14,18,52,6.00
2014,02,14,18,53,6.00
2014,02,14,18,54,6.00
2014,02,14,18,55,5.90
2014,02,14,18,56,5.90
2014,02,14,18,57,5.80
2014,02,14,18,58,5.80
2014,02,14,18,59,5.70
2014,02,14,19,00,5.60
2014,02,14,19,01,5.60
2014,02,14,19,02,5.50
2014,02,14,19,03,5.40
2014,02,14,19,04,5.40
2014,02,14,19,05,5.30
2014,02,14,19,06,5.30
2014,02,14,19,07,5.20
2014,02,14,19,08,5.20
2014,02,14,19,09,5.10
2014,02,14,19,10,5.10
2014,02,14,19,11,5.10
2014,02,14,19,12,5.00
2014,02,14,19,13,5.00
2014,02,14,19,14,4.90
2014,02,14,19,15,4.90
2014,02,14,19,16,4.90
2014,02,14,19,17,4.90
2014,02,14,19,18,4.90
2014,02,14,19,19,4.90
2014,02,14,19,20,4.90
2014,02,14,19,21,4.90
2014,02,14,19,22,5.00
2014,02,14,19,23,5.00
2014,02,14,19,24,5.10
2014,02,14,19,25,5.10
2014,02,14,19,26,5.10
2014,02,14,19,27,5.10
2014,02,14,19,28,5.10
2014,02,14,19,29,5.10
2014,02,14,19,30,5.10
2014,02,14,19,31,5.00
2014,02,14,19,32,5.00
2014,02,14,19,33,5.00
2014,02,14,19,34,5.00
2014,02,14,19,35,5.00
2014,02,14,19,36,4.90
2014,02,14,19,37,4.90
2014,02,14,19,38,4.90
2014,02,14,19,39,4.90
2014,02,14,19,40,4.90
2014,02,14,19,41,4.90
2014,02,14,19,42,4.80
2014,02,14,19,43,4.80
2014,02,14,19,44,4.80
2014,02,14,19,45,4.70
2014,02,14,19,46,4.60
2014,02,14,19,47,4.60
2014,02,14,19,48,4.60
2014,02,14,19,49,4.60
2014,02,14,19,50,4.60
2014,02,14,19,51,4.60
2014,02,14,19,52,4.60
2014,02,14,19,53,4.60
2014,02,14,19,54,4.60
2014,02,14,19,55,4.60
2014,02,14,19,56,4.50
2014,02,14,19,57,4.50
2014,02,14,19,58,4.40
2014,02,14,19,59,4.40
2014,02,14,20,00,4.40
2014,02,14,20,01,4.30
2014,02,14,20,02,4.30
2014,02,14,20,03,4.20
2014,02,14,20,04,4.20
2014,02,14,20,05,4.10
2014,02,14,20,06,4.10
2014,02,14,20,07,4.00
2014,02,14,20,08,4.00
2014,02,14,20,09,4.00
2014,02,14,20,10,4.00
2014,02,14,20,11,4.00
2014,02,14,20,12,4.00
2014,02,14,20,13,4.00
2014,02,14,20,14,3.90
2014,02,14,20,15,3.90
2014,02,14,20,16,3.90
2014,02,14,20,17,3.90
2014,02,14,20,18,3.80
2014,02,14,20,19,3.80
2014,02,14,20,20,3.80
2014,02,14,20,21,3.80
2014,02,14,20,22,3.70
2014,02,14,20,23,3.70
2014,02,14,20,24,3.70
2014,02,14,20,25,3.70
2014,02,14,20,26,3.60
2014,02,14,20,27,3.60
2014,02,14,20,28,3.60
2014,02,14,20,29,3.60
2014,02,14,20,30,3.70
2014,02,14,20,31,3.70
2014,02,14,20,32,3.70
2014,02,14,20,33,3.70
2014,02,14,20,34,3.80
2014,02,14,20,35,3.80
2014,02,14,20,36,3.80
2014,02,14,20,37,3.80
2014,02,14,20,38,3.80
2014,02,14,20,39,3.70
2014,02,14,20,40,3.70
2014,02,14,20,41,3.70
2014,02,14,20,42,3.70
2014,02,14,20,43,3.70
2014,02,14,20,44,3.70
2014,02,14,20,45,3.60
2014,02,14,20,46,3.60
2014,02,14,20,47,3.60
2014,02,14,20,48,3.70
2014,02,14,20,49,3.70
2014,02,14,20,50,3.60
2014,02,14,20,51,3.60
2014,02,14,20,52,3.60
2014,02,14,20,53,3.70
2014,02,14,20,54,3.70
2014,02,14,20,55,3.70
2014,02,14,20,56,3.70
2014,02,14,20,57,3.60
2014,02,14,20,58,3.60
2014,02,14,20,59,3.50
2014,02,14,21,00,3.50
2014,02,14,21,01,3.50
2014,02,14,21,02,3.40
2014,02,14,21,03,3.40
2014,02,14,21,04,3.40
2014,02,14,21,05,3.40
2014,02,14,21,06,3.40
2014,02,14,21,07,3.40
2014,02,14,21,08,3.40
2014,02,14,21,09,3.40
2014,02,14,21,10,3.40
2014,02,14,21,11,3.40
2014,02,14,21,12,3.40
2014,02,14,21,13,3.40
2014,02,14,21,14,3.40
2014,02,14,21,15,3.40
2014,02,14,21,16,3.40
2014,02,14,21,17,3.30
2014,02,14,21,18,3.30
2014,02,14,21,19,3.30
2014,02,14,21,20,3.20
2014,02,14,21,21,3.20
2014,02,14,21,22,3.20
2014,02,14,21,23,3.20
2014,02,14,21,24,3.20
2014,02,14,21,25,3.20
2014,02,14,21,26,3.20
2014,02,14,21,27,3.20
2014,02,14,21,28,3.20
2014,02,14,21,29,3.20
2014,02,14,21,30,3.20
2014,02,14,21,31,3.20
2014,02,14,21,32,3.20
2014,02,14,21,33,3.20
2014,02,14,21,34,3.10
2014,02,14,21,35,3.10
2014,02,14,21,36,3.00
2014,02,14,21,37,3.00
2014,02,14,21,38,3.00
2014,02,14,21,39,3.10
2014,02,14,21,40,3.10
2014,02,14,21,41,3.10
2014,02,14,21,42,3.10
2014,02,14,21,43,3.10
2014,02,14,21,44,3.10
2014,02,14,21,45,3.10
2014,02,14,21,46,3.10
2014,02,14,21,47,3.10
2014,02,14,21,48,3.10
2014,02,14,21,49,3.20
2014,02,14,21,50,3.20
2014,02,14,21,51,3.20
2014,02,14,21,52,3.20
2014,02,14,21,53,3.20
2014,02,14,21,54,3.10
2014,02,14,21,55,3.10
2014,02,14,21,56,3.10
2014,02,14,21,57,3.00
2014,02,14,21,58,3.00
2014,02,14,21,59,2.90
2014,02,14,22,00,2.90
2014,02,14,22,01,2.90
2014,02,14,22,02,2.90
2014,02,14,22,03,2.90
2014,02,14,22,04,2.90
2014,02,14,22,05,2.90
2014,02,14,22,06,2.90
2014,02,14,22,07,2.80
2014,02,14,22,08,2.80
2014,02,14,22,09,2.80
2014,02,14,22,10,2.70
2014,02,14,22,11,2.70
2014,02,14,22,12,2.70
2014,02,14,22,13,2.70
2014,02,14,22,14,2.70
2014,02,14,22,15,2.70
2014,02,14,22,16,2.70
2014,02,14,22,17,2.70
2014,02,14,22,18,2.70
2014,02,14,22,19,2.70
2014,02,14,22,20,2.80
2014,02,14,22,21,2.80
2014,02,14,22,22,2.90
2014,02,14,22,23,3.00
2014,02,14,22,24,3.10
2014,02,14,22,25,3.20
2014,02,14,22,26,3.20
2014,02,14,22,27,3.20
2014,02,14,22,28,3.20
2014,02,14,22,29,3.20
2014,02,14,22,30,3.20
2014,02,14,22,31,3.30
2014,02,14,22,32,3.30
2014,02,14,22,33,3.30
2014,02,14,22,34,3.30
2014,02,14,22,35,3.30
2014,02,14,22,36,3.30
2014,02,14,22,37,3.30
2014,02,14,22,38,3.30
2014,02,14,22,39,3.30
2014,02,14,22,40,3.30
2014,02,14,22,41,3.40
2014,02,14,22,42,3.40
2014,02,14,22,43,3.40
2014,02,14,22,44,3.40
2014,02,14,22,45,3.40
2014,02,14,22,46,3.40
2014,02,14,22,47,3.30
2014,02,14,22,48,3.30
2014,02,14,22,49,3.30
2014,02,14,22,50,3.30
2014,02,14,22,51,3.30
2014,02,14,22,52,3.30
2014,02,14,22,53,3.20
2014,02,14,22,54,3.20
2014,02,14,22,55,3.20
2014,02,14,22,56,3.20
2014,02,14,22,57,3.20
2014,02,14,22,58,3.20
2014,02,14,22,59,3.30
2014,02,14,23,00,3.40
2014,02,14,23,01,3.50
2014,02,14,23,02,3.60
2014,02,14,23,03,3.70
2014,02,14,23,04,3.70
2014,02,14,23,05,3.80
2014,02,14,23,06,3.70
2014,02,14,23,07,3.70
2014,02,14,23,08,3.70
2014,02,14,23,09,3.70
2014,02,14,23,10,3.70
2014,02,14,23,11,3.70
2014,02,14,23,12,3.70
2014,02,14,23,13,3.70
2014,02,14,23,14,3.80
2014,02,14,23,15,3.80
2014,02,14,23,16,3.80
2014,02,14,23,17,3.80
2014,02,14,23,18,3.70
2014,02,14,23,19,3.70
2014,02,14,23,20,3.60
2014,02,14,23,21,3.50
2014,02,14,23,22,3.50
2014,02,14,23,23,3.40
2014,02,14,23,24,3.40
2014,02,14,23,25,3.30
2014,02,14,23,26,3.30
2014,02,14,23,27,3.20
2014,02,14,23,28,3.20
2014,02,14,23,29,3.20
2014,02,14,23,30,3.20
2014,02,14,23,31,3.20
2014,02,14,23,32,3.10
2014,02,14,23,33,3.10
2014,02,14,23,34,3.10
2014,02,14,23,35,3.00
2014,02,14,23,36,3.00
2014,02,14,23,37,2.90
2014,02,14,23,38,2.90
2014,02,14,23,39,2.80
2014,02,14,23,40,2.80
2014,02,14,23,41,2.70
2014,02,14,23,42,2.70
2014,02,14,23,43,2.70
2014,02,14,23,44,2.60
2014,02,14,23,45,2.60
2014,02,14,23,46,2.60
2014,02,14,23,47,2.60
2014,02,14,23,48,2.50
2014,02,14,23,49,2.50
2014,02,14,23,50,2.50
2014,02,14,23,51,2.50
2014,02,14,23,52,2.40
2014,02,14,23,53,2.40
2014,02,14,23,54,2.40
2014,02,14,23,55,2.40
2014,02,14,23,56,2.40
2014,02,14,23,57,2.40
2014,02,14,23,58,2.40
2014,02,14,23,59,2.40
